Location: Kuppenheim
(48.8299°N, 8.2568°E)
Time: 09:48:55
(UTC+00:00)

NOSS 2-2 (C) - Pass Details

Date: 20 June 2021
Orbit: 454 x 1753 km, 63.3° (Epoch: 01 August)

Event Time Altitude Azimuth Distance (km) Brightness Sun altitude
Exits shadow 02:21:49 - 244° (WSW) 1,680 5.2 -8.1°
Reaches altitude 10° 02:22:02 10° 245° (WSW) 1,595 5.1 -8.0°
Maximum altitude 02:25:19 44° 319° (NW) 677 3.9 -7.7°
Drops below altitude 10° 02:29:04 10° 33° (NNE) 1,814 7.7 -7.3°
Sets 02:31:35 0° 40° (NE) 2,857 9.7 -7.0°
